Flag for Poland Weather past 2 weeks in Legnica, Poland

Now
48 °F

Light rain. Passing clouds.


Feels Like: 34 °F
Forecast: 43 / 49 °F
Wind: 102 mph from Southwest

Location: Wroclaw Ii

Current Time: Oct 22, 2014 at 9:13:07 AM

Latest Report: Oct 22, 2014 at 8:00 AM


Visibility: 3 mi

Pressure: 29.63 "Hg

Humidity: 87%

Dew point: 45 °F

Location of LegnicaLocation

Historic Weather in Legnica — Graph

°F

Legnica temperature yesterday

Maximum temperature yesterday: 63 °F (at 2:00 PM)
Minimum temperature yesterday: 52 °F (at 6:00 AM)
Average temperature yesterday: 56 °F

Past Weeks' High & Low Weather Summary

 TemperatureHumidityPressure
High75 °F (Oct 9, 3:00 PM)98% (Oct 10, 5:00 AM)30.30 "Hg (Oct 10, 5:00 AM)
Low44 °F (Oct 16, 5:00 AM)55% (Oct 7, 3:00 PM)29.50 "Hg (Oct 22, 2:00 AM)
Average58 °F85%29.92 "Hg
* Reported Oct 7 7:00 AM — Oct 22 7:00 AM, Legnica, Weather by CustomWeather, © 2014

Note: Actual official high and low records may vary slightly from our data, if they occured in-between our weather recording intervals... More about our weather records

Advertising

Legnica weather history for previous 24 hours

 ConditionsComfort  
Time TempWeatherWind HumidityBarometerVisibility
7:00 AM
Oct 22
49 °FOvercast.8 mph82%29.62 "Hg31 mi
6:00 AM49 °FOvercast.8 mph84%29.60 "Hg31 mi
5:00 AM50 °FSprinkles. Overcast.6 mph90%29.59 "Hg12 mi
4:00 AM51 °FRain showers. Overcast.7 mph90%29.56 "Hg5 mi
3:00 AM53 °FRain showers. Overcast.3 mph91%29.54 "Hg2 mi
2:00 AM54 °FPassing clouds.25 mph85%29.50 "Hg4 mi
1:00 AM54 °FOvercast.2 mph84%29.53 "Hg25 mi
12:00 AM54 °FOvercast.3 mph83%29.55 "Hg25 mi
11:00 PM
Oct 21
52 °FOvercast.3 mph87%29.57 "Hg25 mi
10:00 PM56 °FOvercast.2 mph74%29.59 "Hg25 mi
9:00 PMN/APassing clouds.25 mphN/AN/A2 mi
8:00 PM54 °FOvercast.3 mph79%29.63 "Hg25 mi
7:00 PM53 °FOvercast.3 mph82%29.66 "Hg31 mi
6:00 PM56 °FPassing clouds.5 mph71%29.68 "Hg31 mi
5:00 PMN/APassing clouds.43 mphN/AN/A2 mi
4:00 PM62 °FOvercast.3 mph62%29.72 "Hg31 mi
3:00 PM62 °FOvercast.3 mph60%29.75 "Hg31 mi
2:00 PM63 °FPartly sunny.3 mph59%29.77 "Hg31 mi
1:00 PM62 °FPartly sunny.3 mph66%29.80 "Hg31 mi
12:00 PM61 °FScattered clouds.3 mph70%29.83 "Hg31 mi
11:00 AM59 °FPassing clouds.28 mph73%29.84 "Hg2 mi
10:00 AM56 °FPassing clouds.2 mph81%29.85 "Hg31 mi
9:00 AM53 °FScattered clouds.1 mph90%29.86 "Hg31 mi
Weather by CustomWeather, © 2014

See weather overviewHow to use our weather pages